User: anonymous   Login
Location: Unspecified
(0.0000°N, 0.0000°E)
Time: 03:02:11
(UTC+00:00)
Language:

USA 139 - Orbit

View from above orbital plane
View from above orbital plane
View from above satellite
View from above satellite

Ground track
Ground track

The orbit data is extracted from the following two-line orbital elements,

1 25336U 98029A   18048.65331495 0.00000000  00000-0  00000-0 0    07
2 25336   8.9667 356.3530 0042804 266.0512  93.4661  1.00270000    01
Epoch (UTC): 17 February 2018 15:40:46
Eccentricity: 0.0042804
inclination: 8.9667°
perigee height: 35606 km
apogee height: 35967 km
right ascension of ascending node: 356.3530°
argument of perigee: 266.0512°
revolutions per day: 1.00270000
mean anomaly at epoch: 93.4661°
orbit number at epoch: 0

The dashed part of the orbit path shows where the satellite is in the earth's shadow,  

DLR